Mosinee, WI

1:13 PM CST on December 15, 2017 (GMT -0600)
Central Wisconsin

Weather History for KCWA - September, 2013

Change the Weather History Date:

Friday, September 6, 2013

  Actual Average Record
Temperature  
Mean Temperature 66 °F -  
Max Temperature 82 °F 72 °F 87 °F (2003)
Min Temperature 50 °F 50 °F 39 °F (2000)
Cooling Degree Days 1    
Growing Degree Days 16 (Base 50)    
Moisture  
Dew Point 56 °F    
Average Humidity 81    
Maximum Humidity 100    
Minimum Humidity 54    
Precipitation  
Precipitation 0.00 in - - ()
Sea Level Pressure  
Sea Level Pressure 30.12 in    
Wind  
Wind Speed 6 mph (South)    
Max Wind Speed 13 mph    
Max Gust Speed -    
Visibility 10 miles    
Events      
Averages and records for this station are not official NWS values.
T = Trace of Precipitation, MM = Missing Value Source: NWS Daily Summary

Daily Weather History Graph

Daily Weather History Graph

Search for Another Location

Airport or City:

Trip Planner

Search our weather history database for the weather conditions in past years. The results will help you decide how hot, cold, wet, or windy it might be!

Date:

Astronomy

Sep. 06, 2013 Rise Set
Actual Time 6:27 AM CDT 7:25 PM CDT
Civil Twilight 5:57 AM CDT 7:55 PM CDT
Nautical Twilight 5:21 AM CDT 8:31 PM CDT
Astronomical Twilight 4:44 AM CDT 9:08 PM CDT
Moon 7:44 AM CDT (9/6) 7:43 PM CDT (9/6)
Length of Visible Light 13h 58m
Length of Day
12h 58m
New Moon, 2% of the Moon is Illuminated
Sep 6
New Moon
Sep 12
First Quarter
Sep 19
Full
Sep 26
Last Quarter
Oct 4
New

Hourly Weather History & Observations

Time (CDT) Temp. Heat Index Dew Point Humidity Pressure Visibility Wind Dir Wind Speed Gust Speed Precip Events Conditions
12:15 AM 53.6 °F - 51.8 °F 94% 30.23 in 10.0 mi ESE 5.8 mph - N/A   Clear
12:35 AM 53.6 °F - 51.8 °F 94% 30.23 in 10.0 mi ESE 6.9 mph - N/A   Clear
12:55 AM 53.6 °F - 51.8 °F 94% 30.23 in 10.0 mi ESE 6.9 mph - N/A   Clear
1:15 AM 53.6 °F - 51.8 °F 94% 30.23 in 10.0 mi SE 6.9 mph - N/A   Clear
1:35 AM 51.8 °F - 51.8 °F 100% 30.22 in 10.0 mi SE 5.8 mph - N/A   Clear
1:55 AM 51.8 °F - 50.0 °F 94% 30.22 in 10.0 mi SE 5.8 mph - N/A   Clear
2:15 AM 51.8 °F - 50.0 °F 94% 30.22 in 10.0 mi SE 5.8 mph - N/A   Clear
2:35 AM 51.8 °F - 50.0 °F 94% 30.22 in 10.0 mi SSE 5.8 mph - N/A   Clear
2:55 AM 51.8 °F - 50.0 °F 94% 30.22 in 10.0 mi SSE 4.6 mph - N/A   Clear
3:15 AM 50.0 °F - 50.0 °F 100% 30.21 in 10.0 mi SE 3.5 mph - N/A   Clear
3:35 AM 50.0 °F - 48.2 °F 94% 30.21 in 10.0 mi SE 4.6 mph - N/A   Clear
3:55 AM 50.0 °F - 48.2 °F 94% 30.20 in 10.0 mi SE 3.5 mph - N/A   Clear
4:15 AM 50.0 °F - 48.2 °F 94% 30.21 in 10.0 mi SSE 4.6 mph - N/A   Clear
4:35 AM 50.0 °F - 48.2 °F 94% 30.21 in 10.0 mi South 4.6 mph - N/A   Clear
4:55 AM 50.0 °F - 46.4 °F 87% 30.20 in 10.0 mi SSE 5.8 mph - N/A   Clear
5:15 AM 50.0 °F - 46.4 °F 87% 30.21 in 10.0 mi Calm Calm - N/A   Clear
5:35 AM 51.8 °F - 46.4 °F 82% 30.21 in 10.0 mi South 6.9 mph - N/A   Clear
5:45 AM 51.8 °F - 48.2 °F 88% 30.22 in 10.0 mi South 6.9 mph - N/A   Clear
6:45 AM 51.8 °F - 48.2 °F 88% 30.20 in 10.0 mi South 4.6 mph - N/A   Scattered Clouds
7:45 AM 55.4 °F - 51.8 °F 88% 30.19 in 10.0 mi South 5.8 mph - N/A   Scattered Clouds
8:45 AM 60.8 °F - 50.0 °F 68% 30.17 in 10.0 mi South 5.8 mph - N/A   Mostly Cloudy
9:45 AM 62.6 °F - 51.8 °F 68% 30.17 in 10.0 mi SSW 6.9 mph - N/A   Scattered Clouds
10:45 AM 69.8 °F - 55.4 °F 60% 30.14 in 10.0 mi South 4.6 mph - N/A   Clear
11:45 AM 71.6 °F - 57.2 °F 60% 30.13 in 10.0 mi South 6.9 mph - N/A   Clear
12:50 PM 75.2 °F - 60.8 °F 61% 30.09 in 10.0 mi South 11.5 mph - N/A   Clear
1:45 PM 78.8 °F - 62.6 °F 57% 30.07 in 10.0 mi South 9.2 mph - N/A   Clear
2:45 PM 82.4 °F 83.9 °F 64.4 °F 54% 30.05 in 10.0 mi South 6.9 mph - N/A   Clear
3:50 PM 82.4 °F 83.9 °F 64.4 °F 54% 30.03 in 10.0 mi SSW 8.1 mph - N/A   Clear
4:45 PM 80.6 °F 82.7 °F 66.2 °F 61% 30.01 in 10.0 mi South 9.2 mph - N/A   Scattered Clouds
5:45 PM 80.6 °F 82.3 °F 64.4 °F 58% 29.99 in 10.0 mi SSW 12.7 mph - N/A   Clear
6:45 PM 78.8 °F - 64.4 °F 61% 29.98 in 10.0 mi SSW 9.2 mph - N/A   Clear
7:50 PM 75.2 °F - 64.4 °F 69% 29.98 in 10.0 mi SSW 9.2 mph - N/A   Mostly Cloudy
8:50 PM 73.4 °F - 64.4 °F 73% 29.98 in 10.0 mi SSW 8.1 mph - N/A   Scattered Clouds
9:45 PM 71.6 °F - 64.4 °F 78% 29.98 in 10.0 mi SSW 6.9 mph - N/A   Scattered Clouds
10:15 PM 71.6 °F - 64.4 °F 78% 29.98 in 10.0 mi SSW 8.1 mph - N/A   Scattered Clouds
10:35 PM 69.8 °F - 64.4 °F 83% 29.98 in 10.0 mi SSW 5.8 mph - N/A   Mostly Cloudy
10:55 PM 69.8 °F - 64.4 °F 83% 29.97 in 10.0 mi South 5.8 mph - N/A   Scattered Clouds
11:15 PM 68.0 °F - 64.4 °F 88% 29.97 in 10.0 mi SSW 5.8 mph - N/A   Scattered Clouds
11:35 PM 68.0 °F - 64.4 °F 88% 29.97 in 10.0 mi SSW 5.8 mph - N/A   Scattered Clouds
11:55 PM 69.8 °F - 64.4 °F 83% 29.97 in 10.0 mi SSW 5.8 mph - N/A   Scattered Clouds